Tiempo cada hora Dabki

Hoy, 4 Agosto, Miércoles

Tiempo Temperatura Precipitaciones Viento Presión Humedad
00:00 +16°C° 0 mm 2 mps 751 mmHg 70%
01:00 +16°C° 0 mm 2 mps 751 mmHg 72%
02:00 +16°C° 0 mm 2 mps 751 mmHg 72%
03:00 +16°C° 0 mm 2 mps 751 mmHg 73%
04:00 +16°C° 0 mm 2 mps 751 mmHg 73%
05:00 +16°C° 0.2 mm 2 mps 751 mmHg 73%
06:00 +16°C° 0.2 mm 1 mps 752 mmHg 74%
07:00 +16°C° 0.2 mm 1 mps 752 mmHg 74%
08:00 +18°C° 0.3 mm 1 mps 752 mmHg 75%
09:00 +18°C° 0.3 mm 1 mps 752 mmHg 76%
10:00 +17°C° 0.3 mm 2 mps 752 mmHg 77%
11:00 +17°C° 0.1 mm 2 mps 752 mmHg 76%
12:00 +18°C° 0.1 mm 2 mps 752 mmHg 76%
13:00 +18°C° 0.1 mm 2 mps 752 mmHg 75%
14:00 +19°C° 0 mm 2 mps 752 mmHg 71%
15:00 +19°C° 0 mm 3 mps 751 mmHg 66%
16:00 +20°C° 0 mm 3 mps 751 mmHg 61%
17:00 +20°C° 0 mm 3 mps 751 mmHg 64%
18:00 +19°C° 0 mm 2 mps 751 mmHg 67%
19:00 +18°C° 0 mm 2 mps 751 mmHg 71%
20:00 +17°C° 0 mm 2 mps 751 mmHg 77%
21:00 +15°C° 0 mm 2 mps 751 mmHg 83%
22:00 +13°C° 0 mm 3 mps 752 mmHg 89%
23:00 +13°C° 0 mm 3 mps 752 mmHg 90%

Mañana, 5 Agosto, Jueves

Tiempo Temperatura Precipitaciones Viento Presión Humedad
00:00 +13°C° 0 mm 3 mps 751 mmHg 91%
01:00 +12°C° 0 mm 3 mps 751 mmHg 93%
02:00 +12°C° 0 mm 3 mps 751 mmHg 93%
03:00 +12°C° 0 mm 3 mps 751 mmHg 94%
04:00 +11°C° 0 mm 3 mps 751 mmHg 95%
05:00 +13°C° 0 mm 3 mps 751 mmHg 89%
06:00 +14°C° 0 mm 3 mps 751 mmHg 84%
07:00 +17°C° 0 mm 4 mps 751 mmHg 78%
08:00 +18°C° 0 mm 4 mps 751 mmHg 72%
09:00 +20°C° 0 mm 4 mps 751 mmHg 65%
10:00 +22°C° 0 mm 4 mps 750 mmHg 58%
11:00 +22°C° 0 mm 4 mps 750 mmHg 53%
12:00 +23°C° 0 mm 4 mps 750 mmHg 49%
13:00 +25°C° 0 mm 4 mps 749 mmHg 44%
14:00 +25°C° 0 mm 4 mps 749 mmHg 46%
15:00 +23°C° 0 mm 4 mps 749 mmHg 48%
16:00 +23°C° 0 mm 4 mps 749 mmHg 49%
17:00 +22°C° 0 mm 4 mps 749 mmHg 52%
18:00 +21°C° 0 mm 4 mps 748 mmHg 54%
19:00 +20°C° 0 mm 4 mps 748 mmHg 57%
20:00 +20°C° 0 mm 3 mps 748 mmHg 60%
21:00 +19°C° 0 mm 3 mps 748 mmHg 62%
22:00 +19°C° 0 mm 3 mps 748 mmHg 65%
23:00 +18°C° 0 mm 3 mps 748 mmHg 67%

Pasado mañana, 6 Agosto, Viernes

Tiempo Temperatura Precipitaciones Viento Presión Humedad
00:00 +18°C° 0 mm 3 mps 747 mmHg 69%
01:00 +18°C° 0 mm 2 mps 747 mmHg 71%
02:00 +17°C° 0.1 mm 2 mps 747 mmHg 74%
03:00 +17°C° 0.1 mm 2 mps 747 mmHg 76%
04:00 +16°C° 0.1 mm 2 mps 747 mmHg 79%
05:00 +16°C° 0.1 mm 2 mps 747 mmHg 79%
06:00 +17°C° 0.1 mm 2 mps 747 mmHg 80%
07:00 +17°C° 0.1 mm 2 mps 747 mmHg 80%
08:00 +17°C° 0.1 mm 2 mps 747 mmHg 78%
09:00 +18°C° 0.1 mm 2 mps 747 mmHg 75%
10:00 +18°C° 0.1 mm 2 mps 748 mmHg 73%
11:00 +19°C° 0.4 mm 1 mps 748 mmHg 74%
12:00 +19°C° 0.4 mm 1 mps 747 mmHg 76%
13:00 +19°C° 0.4 mm 1 mps 747 mmHg 77%
14:00 +19°C° 0 mm 1 mps 747 mmHg 73%
15:00 +20°C° 0 mm 1 mps 747 mmHg 68%
16:00 +21°C° 0 mm 1 mps 747 mmHg 64%
17:00 +20°C° 0.1 mm 1 mps 747 mmHg 66%
18:00 +19°C° 0.1 mm 1 mps 747 mmHg 68%
19:00 +19°C° 0.1 mm 1 mps 747 mmHg 70%
20:00 +18°C° 0 mm 1 mps 747 mmHg 73%
21:00 +16°C° 0 mm 1 mps 748 mmHg 75%
22:00 +15°C° 0 mm 1 mps 748 mmHg 77%
23:00 +14°C° 0 mm 1 mps 748 mmHg 78%

7 Agosto, Sábado

Tiempo Temperatura Precipitaciones Viento Presión Humedad
00:00 +14°C° 0 mm 1 mps 748 mmHg 79%
01:00 +13°C° 0 mm 1 mps 748 mmHg 80%
02:00 +13°C° 0 mm 1 mps 748 mmHg 80%
03:00 +13°C° 0 mm 1 mps 748 mmHg 81%
04:00 +13°C° 0 mm 1 mps 748 mmHg 81%
05:00 +14°C° 0 mm 1 mps 748 mmHg 75%
06:00 +16°C° 0 mm 2 mps 748 mmHg 69%
07:00 +18°C° 0 mm 2 mps 748 mmHg 63%
08:00 +19°C° 0 mm 3 mps 748 mmHg 59%
09:00 +21°C° 0 mm 3 mps 748 mmHg 54%
10:00 +23°C° 0 mm 4 mps 748 mmHg 50%
11:00 +25°C° 0 mm 4 mps 748 mmHg 48%
12:00 +26°C° 0 mm 4 mps 747 mmHg 47%
13:00 +27°C° 0 mm 5 mps 747 mmHg 46%
14:00 +27°C° 0 mm 5 mps 747 mmHg 43%
15:00 +27°C° 0 mm 5 mps 747 mmHg 41%
16:00 +28°C° 0 mm 5 mps 747 mmHg 39%
17:00 +26°C° 0 mm 4 mps 747 mmHg 43%
18:00 +25°C° 0 mm 3 mps 747 mmHg 48%
19:00 +23°C° 0 mm 2 mps 747 mmHg 52%
20:00 +23°C° 0 mm 2 mps 747 mmHg 54%
21:00 +22°C° 0 mm 1 mps 747 mmHg 56%
22:00 +21°C° 0 mm 1 mps 747 mmHg 58%
23:00 +21°C° 0.2 mm 1 mps 748 mmHg 64%

8 Agosto, Domingo

Tiempo Temperatura Precipitaciones Viento Presión Humedad
00:00 +19°C° 0.2 mm 2 mps 748 mmHg 70%
01:00 +18°C° 0.2 mm 2 mps 748 mmHg 76%
02:00 +18°C° 1.6 mm 2 mps 748 mmHg 83%
03:00 +17°C° 1.6 mm 2 mps 748 mmHg 89%
04:00 +18°C° 1.6 mm 1 mps 748 mmHg 96%
05:00 +17°C° 0.6 mm 2 mps 748 mmHg 95%
06:00 +18°C° 0.6 mm 3 mps 748 mmHg 93%
07:00 +18°C° 0.6 mm 3 mps 748 mmHg 92%
08:00 +20°C° 0 mm 4 mps 749 mmHg 82%
09:00 +21°C° 0 mm 5 mps 749 mmHg 72%
10:00 +23°C° 0 mm 6 mps 749 mmHg 62%
11:00 +24°C° 0 mm 6 mps 750 mmHg 54%
12:00 +26°C° 0 mm 6 mps 750 mmHg 47%
13:00 +27°C° 0 mm 6 mps 751 mmHg 39%
14:00 +27°C° 0 mm 6 mps 751 mmHg 38%
15:00 +27°C° 0 mm 5 mps 751 mmHg 36%
16:00 +27°C° 0 mm 5 mps 751 mmHg 35%
17:00 +26°C° 0 mm 4 mps 752 mmHg 39%
18:00 +25°C° 0 mm 3 mps 752 mmHg 43%
19:00 +23°C° 0 mm 2 mps 752 mmHg 46%
20:00 +21°C° 0 mm 2 mps 753 mmHg 49%
21:00 +21°C° 0 mm 2 mps 753 mmHg 52%
22:00 +20°C° 0 mm 3 mps 754 mmHg 55%
23:00 +19°C° 0 mm 2 mps 754 mmHg 59%

9 Agosto, Lunes

Tiempo Temperatura Precipitaciones Viento Presión Humedad
00:00 +18°C° 0 mm 2 mps 754 mmHg 63%
01:00 +17°C° 0 mm 2 mps 754 mmHg 68%
02:00 +17°C° 0 mm 2 mps 754 mmHg 70%
03:00 +17°C° 0 mm 2 mps 754 mmHg 72%
04:00 +16°C° 0 mm 2 mps 754 mmHg 74%
05:00 +17°C° 0 mm 2 mps 755 mmHg 71%
06:00 +18°C° 0 mm 2 mps 755 mmHg 69%
07:00 +19°C° 0 mm 2 mps 755 mmHg 66%
08:00 +20°C° 0 mm 3 mps 755 mmHg 60%
09:00 +22°C° 0 mm 3 mps 756 mmHg 54%
10:00 +24°C° 0 mm 3 mps 756 mmHg 47%
11:00 +25°C° 0 mm 3 mps 755 mmHg 43%
12:00 +26°C° 0 mm 4 mps 755 mmHg 39%
13:00 +27°C° 0 mm 4 mps 755 mmHg 35%
14:00 +27°C° 0 mm 4 mps 755 mmHg 37%
15:00 +26°C° 0 mm 4 mps 755 mmHg 38%
16:00 +25°C° 0 mm 4 mps 755 mmHg 40%
17:00 +24°C° 0 mm 3 mps 754 mmHg 43%
18:00 +23°C° 0 mm 2 mps 754 mmHg 47%
19:00 +22°C° 0 mm 1 mps 754 mmHg 50%
20:00 +22°C° 0 mm 1 mps 754 mmHg 52%
21:00 +21°C° 0 mm 1 mps 754 mmHg 55%
22:00 +20°C° 0 mm 1 mps 754 mmHg 57%
23:00 +19°C° 0 mm 2 mps 754 mmHg 61%
Mostrar más

Necesitamos Su Consentimiento

Meteoprog y nuestros Proveedores de Servicios pueden almacenar y acceder a sus datos personales como cookies, identificadores de dispositivo u otras tecnologías similares de su dispositivo y procesar dichos datos para personalizar contenido y anuncios, además de ofrecer funciones de redes sociales y analizar el tráfico.

  • Almacenar y/o acceder a información en su dispositivo

    Se puede almacenar o acceder a cookies, identificadores de dispositivo u otra información de su dispositivo para los fines anteriormente indicados.

  • Anuncios y contenido personalizados, medición de anuncios y contenido, percepciones del público, y desarrollo de productos

    Los anuncios y el contenido pueden personalizarse en base a su perfil. Se pueden añadir más datos para personalizar mejor los anuncios y contenidos. Se puede medir el rendimiento de los anuncios y contenidos. Se puede obtener la percepción sobre el público que ha visto los anuncios y contenidos. Dichos datos pueden usarse para desarrollar o mejorar la experiencia del usuario, sistemas y software.

Al hacer clic en ‘Estoy De Acuerdo’ usted permitirá el uso de las cookies, identificadores de dispositivo, balizas web u otras tecnologías similares indicadas. Su configuración puede cambiarse desde el navegador de su dispositivo.

Para ciertos fines, los intereses legítimos pueden ser considerados por encima del consentimiento. Puede leer más sobre ello en nuestra Política de Privacidad y Cookies.